Location: Guadanolo
(41.9167°N, 12.9333°E)
Time: 00:26:45
(UTC+00:00)

SL-8 R/B - Pass Details

Date: 16 September 2019
Orbit: 657 x 667 km, 48.4° (Epoch: 14 October)

Event Time Altitude Azimuth Distance (km) Brightness Sun altitude
Rises 17:58:49 0° 241° (WSW) 2,974 7.9 -8.6°
Reaches altitude 10° 18:01:09 10° 241° (WSW) 2,066 7.0 -9.0°
Maximum altitude 18:05:55 89° 328° (NNW) 664 3.7 -9.9°
Drops below altitude 10° 18:10:44 10° 62° (ENE) 2,080 5.8 -10.7°
Enters shadow 18:11:23 - 62° (ENE) 2,327 6.1 -10.9°
